This is the latest recevied weather packets stored in our database for station/object KF0EZB. If no packets are shown the sender has not sent any weather packets the latest 10 day(s).
| Time | Temp. | Humidity | Pressure | Rain* | Wind** | Luminosity | Snow |
|---|---|---|---|---|---|---|---|
| 1777523458 | 7.22° C | 73% | 1019.5 hPa | 0 mm | - | 0 W/m² | - |
| 1777523154 | 7.78° C | 73% | 1019.5 hPa | 0 mm | - | 0 W/m² | - |
| 1777522850 | 7.78° C | 72% | 1019.6 hPa | 0 mm | - | 0 W/m² | - |
| 1777522547 | 7.78° C | 72% | 1019.7 hPa | 0 mm | - | 0 W/m² | - |
| 1777522244 | 7.78° C | 71% | 1019.6 hPa | 0 mm | - | 0 W/m² | - |
| 1777521941 | 7.78° C | 71% | 1019.7 hPa | 0 mm | - | 0 W/m² | - |
| 1777521638 | 8.33° C | 70% | 1019.7 hPa | 0 mm | - | 0 W/m² | - |
| 1777521335 | 8.89° C | 69% | 1019.7 hPa | 0 mm | - | 0 W/m² | - |
| 1777521032 | 8.89° C | 68% | 1019.7 hPa | 0 mm | - | 0 W/m² | - |
| 1777520729 | 8.89° C | 68% | 1019.5 hPa | 0 mm | - | 0 W/m² | - |
| 1777520426 | 8.89° C | 68% | 1019.5 hPa | 0 mm | - | 0 W/m² | - |
| 1777520123 | 8.89° C | 67% | 1019.3 hPa | 0 mm | - | 0 W/m² | - |
| 1777519820 | 8.33° C | 68% | 1019 hPa | 0 mm | - | 0 W/m² | - |
| 1777519518 | 7.78° C | 69% | 1018.9 hPa | 0 mm | - | 0 W/m² | - |
| 1777519214 | 8.33° C | 69% | 1019.1 hPa | 0 mm | - | 0 W/m² | - |
| 1777518909 | 8.33° C | 69% | 1019.2 hPa | 0 mm | - | 0 W/m² | - |
| 1777518606 | 8.33° C | 67% | 1019 hPa | 0 mm | - | 0 W/m² | - |
| 1777518303 | 8.89° C | 66% | 1019 hPa | 0 mm | - | 0 W/m² | - |
| 1777517998 | 8.89° C | 65% | 1019.4 hPa | 0 mm | - | 0 W/m² | - |
| 1777517695 | 8.89° C | 65% | 1019 hPa | 0 mm | - | 0 W/m² | - |
| 1777517390 | 8.89° C | 64% | 1018.9 hPa | 0 mm | - | 0 W/m² | - |
| 1777517085 | 8.89° C | 64% | 1018.7 hPa | 0 mm | - | 0 W/m² | - |
| 1777516782 | 9.44° C | 63% | 1018.9 hPa | 0 mm | - | 0 W/m² | - |
| 1777516478 | 9.44° C | 61% | 1019 hPa | 0 mm | - | 0 W/m² | - |
| 1777516173 | 10° C | 60% | 1018.5 hPa | 0 mm | - | 0 W/m² | - |
* Rain latest hour (hover to see other rain measurements)
** Current wind speed in m/s (hover to see current wind gust speed)